Location: Katowice
(50.2611°N, 19.0242°E)
Time: 00:52:00
(UTC+02:00)

Explorer 7 - Pass Details

Date: 29 August 2019
Orbit: 485 x 680 km, 50.3° (Epoch: 19 September)

Event Time Altitude Azimuth Distance (km) Brightness Sun altitude
Rises 08:41:57 0° 239° (WSW) 3,026 10.2 25.7°
Reaches altitude 10° 08:44:21 10° 235° (SW) 2,107 9.5 26.1°
Maximum altitude 08:49:09 58° 157° (SSE) 775 8.4 26.8°
Drops below altitude 10° 08:53:47 10° 79° (E) 2,042 10.8 27.5°
Sets 08:56:06 0° 76° (ENE) 2,925 11.3 27.9°
